• în Republica Moldova
  • Lista ţărilor
  • Pe 7 zile
  • Temperatura apei
  • Hartă satelitară
  • Meteo pe hartă
  • Widget-uri
  • user-avatar
    Intrare

    Meteo pe oră la Namibe

    Astăzi, 23 Mai, Marţi

    Timp Temperatura Precipitaţii Vânt Presiune Umiditate
    00:00 +29°C° 0 mm 1 m/s 758 mmHg 43%
    01:00 +28°C° 0 mm 2 m/s 758 mmHg 43%
    02:00 +28°C° 0 mm 2 m/s 757 mmHg 42%
    03:00 +28°C° 0 mm 2 m/s 757 mmHg 41%
    04:00 +28°C° 0 mm 2 m/s 757 mmHg 40%
    05:00 +28°C° 0 mm 2 m/s 757 mmHg 40%
    06:00 +28°C° 0 mm 2 m/s 758 mmHg 39%
    07:00 +28°C° 0 mm 2 m/s 758 mmHg 38%
    08:00 +30°C° 0 mm 2 m/s 758 mmHg 32%
    09:00 +34°C° 0 mm 2 m/s 758 mmHg 27%
    10:00 +36°C° 0 mm 2 m/s 758 mmHg 21%
    11:00 +37°C° 0 mm 2 m/s 758 mmHg 20%
    12:00 +38°C° 0 mm 3 m/s 758 mmHg 19%
    13:00 +41°C° 0 mm 4 m/s 757 mmHg 17%
    14:00 +40°C° 0 mm 5 m/s 757 mmHg 19%
    15:00 +39°C° 0 mm 6 m/s 756 mmHg 21%
    16:00 +38°C° 0 mm 6 m/s 756 mmHg 23%
    17:00 +35°C° 0 mm 5 m/s 757 mmHg 29%
    18:00 +33°C° 0 mm 5 m/s 757 mmHg 35%
    19:00 +30°C° 0 mm 4 m/s 757 mmHg 41%
    20:00 +29°C° 0 mm 3 m/s 758 mmHg 42%
    21:00 +29°C° 0 mm 3 m/s 758 mmHg 42%
    22:00 +29°C° 0 mm 3 m/s 759 mmHg 43%
    23:00 +28°C° 0 mm 3 m/s 758 mmHg 42%

    Mâine, 24 Mai, Miercuri

    Timp Temperatura Precipitaţii Vânt Presiune Umiditate
    00:00 +28°C° 0 mm 3 m/s 758 mmHg 42%
    01:00 +28°C° 0 mm 3 m/s 758 mmHg 41%
    02:00 +28°C° 0 mm 3 m/s 758 mmHg 40%
    03:00 +27°C° 0 mm 3 m/s 758 mmHg 40%
    04:00 +27°C° 0 mm 3 m/s 758 mmHg 40%
    05:00 +27°C° 0 mm 2 m/s 758 mmHg 39%
    06:00 +27°C° 0 mm 2 m/s 758 mmHg 38%
    07:00 +27°C° 0 mm 2 m/s 758 mmHg 38%
    08:00 +30°C° 0 mm 2 m/s 759 mmHg 32%
    09:00 +32°C° 0 mm 2 m/s 759 mmHg 26%
    10:00 +36°C° 0 mm 2 m/s 759 mmHg 20%
    11:00 +37°C° 0 mm 3 m/s 759 mmHg 19%
    12:00 +38°C° 0 mm 4 m/s 758 mmHg 18%
    13:00 +40°C° 0 mm 5 m/s 757 mmHg 17%
    14:00 +39°C° 0 mm 6 m/s 757 mmHg 18%
    15:00 +38°C° 0 mm 6 m/s 757 mmHg 20%
    16:00 +36°C° 0 mm 7 m/s 757 mmHg 21%
    17:00 +34°C° 0 mm 6 m/s 757 mmHg 26%
    18:00 +32°C° 0 mm 5 m/s 757 mmHg 31%
    19:00 +29°C° 0 mm 4 m/s 758 mmHg 36%
    20:00 +28°C° 0 mm 4 m/s 758 mmHg 37%
    21:00 +28°C° 0 mm 3 m/s 759 mmHg 37%
    22:00 +27°C° 0 mm 3 m/s 759 mmHg 38%
    23:00 +27°C° 0 mm 2 m/s 759 mmHg 37%

    Poimâine, 25 Mai, Joi

    Timp Temperatura Precipitaţii Vânt Presiune Umiditate
    00:00 +27°C° 0 mm 2 m/s 759 mmHg 36%
    01:00 +26°C° 0 mm 2 m/s 758 mmHg 34%
    02:00 +26°C° 0 mm 2 m/s 758 mmHg 34%
    03:00 +26°C° 0 mm 2 m/s 758 mmHg 33%
    04:00 +25°C° 0 mm 2 m/s 757 mmHg 32%
    05:00 +26°C° 0 mm 2 m/s 758 mmHg 31%
    06:00 +26°C° 0 mm 2 m/s 758 mmHg 30%
    07:00 +26°C° 0 mm 2 m/s 758 mmHg 30%
    08:00 +29°C° 0 mm 2 m/s 759 mmHg 25%
    09:00 +31°C° 0 mm 2 m/s 759 mmHg 21%
    10:00 +35°C° 0 mm 2 m/s 759 mmHg 17%
    11:00 +36°C° 0 mm 3 m/s 758 mmHg 17%
    12:00 +37°C° 0 mm 4 m/s 758 mmHg 17%
    13:00 +40°C° 0 mm 5 m/s 757 mmHg 17%
    14:00 +37°C° 0 mm 5 m/s 757 mmHg 20%
    15:00 +36°C° 0 mm 6 m/s 756 mmHg 24%
    16:00 +35°C° 0 mm 6 m/s 756 mmHg 27%
    17:00 +33°C° 0 mm 5 m/s 756 mmHg 33%
    18:00 +30°C° 0 mm 4 m/s 757 mmHg 38%
    19:00 +28°C° 0 mm 4 m/s 757 mmHg 44%
    20:00 +28°C° 0 mm 3 m/s 758 mmHg 45%
    21:00 +27°C° 0 mm 3 m/s 758 mmHg 46%
    22:00 +27°C° 0 mm 2 m/s 759 mmHg 47%
    23:00 +26°C° 0 mm 2 m/s 759 mmHg 47%

    26 Mai, Vineri

    Timp Temperatura Precipitaţii Vânt Presiune Umiditate
    00:00 +26°C° 0 mm 2 m/s 759 mmHg 47%
    01:00 +26°C° 0 mm 2 m/s 759 mmHg 47%
    02:00 +25°C° 0 mm 2 m/s 758 mmHg 46%
    03:00 +25°C° 0 mm 2 m/s 758 mmHg 46%
    04:00 +25°C° 0 mm 2 m/s 758 mmHg 46%
    05:00 +25°C° 0 mm 2 m/s 758 mmHg 45%
    06:00 +25°C° 0 mm 2 m/s 759 mmHg 43%
    07:00 +26°C° 0 mm 2 m/s 759 mmHg 42%
    08:00 +29°C° 0 mm 2 m/s 759 mmHg 36%
    09:00 +31°C° 0 mm 2 m/s 759 mmHg 29%
    10:00 +35°C° 0 mm 2 m/s 759 mmHg 23%
    11:00 +37°C° 0 mm 3 m/s 758 mmHg 21%
    12:00 +38°C° 0 mm 4 m/s 758 mmHg 20%
    13:00 +40°C° 0 mm 5 m/s 757 mmHg 18%
    14:00 +39°C° 0 mm 5 m/s 757 mmHg 22%
    15:00 +36°C° 0 mm 6 m/s 757 mmHg 27%
    16:00 +34°C° 0 mm 7 m/s 757 mmHg 31%
    17:00 +32°C° 0 mm 6 m/s 757 mmHg 37%
    18:00 +29°C° 0 mm 5 m/s 758 mmHg 44%
    19:00 +27°C° 0 mm 4 m/s 758 mmHg 50%
    20:00 +27°C° 0 mm 3 m/s 759 mmHg 49%
    21:00 +27°C° 0 mm 2 m/s 759 mmHg 48%
    22:00 +27°C° 0 mm 2 m/s 760 mmHg 47%
    23:00 +27°C° 0 mm 2 m/s 759 mmHg 45%

    27 Mai, Sâmbătă

    Timp Temperatura Precipitaţii Vânt Presiune Umiditate
    00:00 +27°C° 0 mm 2 m/s 759 mmHg 43%
    01:00 +27°C° 0 mm 1 m/s 759 mmHg 40%
    02:00 +27°C° 0 mm 1 m/s 759 mmHg 39%
    03:00 +27°C° 0 mm 1 m/s 758 mmHg 38%
    04:00 +27°C° 0 mm 1 m/s 758 mmHg 37%
    05:00 +27°C° 0 mm 2 m/s 758 mmHg 36%
    06:00 +27°C° 0 mm 2 m/s 759 mmHg 36%
    07:00 +27°C° 0 mm 3 m/s 759 mmHg 35%
    08:00 +30°C° 0 mm 2 m/s 759 mmHg 30%
    09:00 +32°C° 0 mm 2 m/s 760 mmHg 25%
    10:00 +36°C° 0 mm 2 m/s 760 mmHg 20%
    11:00 +37°C° 0 mm 3 m/s 759 mmHg 20%
    12:00 +38°C° 0 mm 4 m/s 759 mmHg 20%
    13:00 +40°C° 0 mm 5 m/s 758 mmHg 19%
    14:00 +39°C° 0 mm 5 m/s 757 mmHg 22%
    15:00 +38°C° 0 mm 6 m/s 757 mmHg 25%
    16:00 +36°C° 0 mm 6 m/s 757 mmHg 27%
    17:00 +35°C° 0 mm 5 m/s 757 mmHg 31%
    18:00 +33°C° 0 mm 5 m/s 758 mmHg 35%
    19:00 +30°C° 0 mm 4 m/s 758 mmHg 39%
    20:00 +30°C° 0 mm 3 m/s 759 mmHg 38%
    21:00 +30°C° 0 mm 3 m/s 759 mmHg 38%
    22:00 +29°C° 0 mm 2 m/s 759 mmHg 38%
    23:00 +29°C° 0 mm 2 m/s 759 mmHg 37%

    28 Mai, Duminică

    Timp Temperatura Precipitaţii Vânt Presiune Umiditate
    00:00 +29°C° 0 mm 2 m/s 759 mmHg 36%
    01:00 +29°C° 0 mm 2 m/s 759 mmHg 35%
    02:00 +29°C° 0 mm 2 m/s 759 mmHg 35%
    03:00 +29°C° 0 mm 2 m/s 758 mmHg 36%
    04:00 +28°C° 0 mm 2 m/s 758 mmHg 37%
    05:00 +28°C° 0 mm 2 m/s 759 mmHg 37%
    06:00 +28°C° 0 mm 2 m/s 759 mmHg 37%
    07:00 +28°C° 0 mm 2 m/s 759 mmHg 37%
    08:00 +31°C° 0 mm 2 m/s 760 mmHg 32%
    09:00 +34°C° 0 mm 2 m/s 760 mmHg 26%
    10:00 +37°C° 0 mm 2 m/s 760 mmHg 20%
    11:00 +38°C° 0 mm 3 m/s 759 mmHg 20%
    12:00 +40°C° 0 mm 4 m/s 759 mmHg 19%
    13:00 +41°C° 0 mm 4 m/s 758 mmHg 19%
    14:00 +40°C° 0 mm 5 m/s 758 mmHg 20%
    15:00 +40°C° 0 mm 5 m/s 758 mmHg 21%
    16:00 +39°C° 0 mm 5 m/s 757 mmHg 21%
    17:00 +36°C° 0 mm 5 m/s 758 mmHg 26%
    18:00 +34°C° 0 mm 4 m/s 758 mmHg 31%
    19:00 +31°C° 0 mm 3 m/s 759 mmHg 35%
    20:00 +31°C° 0 mm 3 m/s 759 mmHg 36%
    21:00 +30°C° 0 mm 3 m/s 759 mmHg 36%
    22:00 +30°C° 0 mm 3 m/s 760 mmHg 36%
    23:00 +30°C° 0 mm 3 m/s 759 mmHg 34%
    Arată mai mult